Terminal Aerodrome Forecast
Issued by NWS Milwaukee/Sullivan, WI

Home | Current Version | Previous Version | Text Only | Print | Product List | Glossary On
Versions: 1 2 3 4 5 6 7 8 9 10 11 12 13 14 15 16 17 18 19 20 21 22 23 24 25 26 27 28 29 30 31 32 33 34 35 36 37 38 39 40 41 42 43 44 45 46 47 48 49 50
000
FTUS43 KMKX 271533 AAB
TAFMSN
TAF AMD
KMSN 271533Z 2716/2812 32009KT 6SM -SN BKN018
     FM271800 32009G18KT P6SM SCT025
     FM272200 31006KT P6SM SCT025
     FM280400 00000KT P6SM SCT150
     FM280800 00000KT P6SM BKN110=

USA.gov is the U.S. government's official web portal to all federal, state and local government web resources and services.